Weather Roundup
Issued by NWS Chicago, IL

Home | Current Version | Previous Version | Text Only | Print | Product List | Glossary On
Versions: 1 2 3 4 5 6 7 8 9 10 11 12 13 14 15 16 17 18 19 20 21 22 23 24 25 26 27 28 29 30 31 32 33 34 35 36 37 38 39 40 41 42 43 44 45 46 47 48 49 50
000
NZUS59 KLOT 030212
HRRLOT

CHICAGO AREA WEATHER ROUNDUP
NATIONAL WEATHER SERVICE CHICAGO/ROMEOVILLE IL
800 PM CST FRI DEC 02 2016

NOTE: "FAIR" INDICATES FEW OR NO CLOUDS BELOW 12,000 FEET WITH NO
SIGNIFICANT WEATHER AND/OR OBSTRUCTIONS TO VISIBILITY.

* THESE STATIONS ARE NOT UNDER NWS QUALITY CONTROL. THEY ALSO MAY NOT
  REPORT WEATHER SUCH AS PRECIPITATION OR FOG.

ILZ005-006-012>014-019>023-030300-
NORTHEAST ILLINOIS

CITY           SKY/WX    TMP DP  RH WIND       PRES   REMARKS
OHARE          CLOUDY    35  25  66 NW8       30.29R WCI  29
MIDWAY         CLOUDY    38  26  62 W8        30.30R
AURORA         CLOUDY    35  26  69 NW8       30.31R WCI  29
LANSING*       CLOUDY    37  29  73 W7        30.30R
JOLIET*        CLOUDY    37  28  69 NW6       30.31S
WAUKEGAN       CLOUDY    34  23  64 W5        30.29R WCI  30
DUPAGE AIRPORT CLOUDY    34  24  67 NW8       30.29R WCI  27
WHEELING       CLOUDY    35  24  64 NW5       30.31R WCI  31
KANKAKEE*      CLOUDY    37  32  79 NW5       30.31S
MORRIS*        CLOUDY    35  30  80 N3        30.30S
LEWIS AIRPORT* CLOUDY    35  29  79 NW8       30.30S WCI  28
NORTHERLY ISL    N/A     38  27  65 NW10        N/A
$$

WIZ051-052-058>065-066-070>072-030300-
SOUTHEAST WISCONSIN

CITY           SKY/WX    TMP DP  RH WIND       PRES   REMARKS
MILWAUKEE      CLOUDY    35  23  61 NW8       30.27R WCI  29
KENOSHA*       CLOUDY    34  25  69 W9        30.29R WCI  27
RACINE*        CLOUDY    34  22  61 VRB7      30.30R WCI  28
BURLINGTON     CLOUDY    32  25  73 CALM      30.28R
WEST BEND      CLOUDY    32  27  80 W8        30.26R WCI  25
$$

INZ001>003-010>013-019-020-030300-
NORTHWEST INDIANA

CITY           SKY/WX    TMP DP  RH WIND       PRES   REMARKS
GARY*          CLOUDY    39  27  60 W9        30.31R
MICHIGAN CITY* NOT AVBL
RENSSELAER*    NOT AVBL
VALPARAISO     CLOUDY    38  27  64 W9        30.29R
$$

LMZ740>746-030300-
SOUTHERN LAKE MICHIGAN

STATION/POSITION TIME  SKY/WX   TEMP WIND        PRES    VSBY
                                AIR  DIR/SP/G
                 (UTC)          (F)  (DEG/KT/KT) (MB)    (MI)
HARRISON CRIB    0140            38  320/ 10/ 11   N/A
BURNHAM HARBOR   0200            37  320/  3/  9   N/A
CALUMET HARBOR   0142            38  260/  5/  8 1025.2R
BURNS HARBOR     0040            40  290/ 13/ 18 1025.4
MICHIGAN CITY    0140            38  310/ 13/ 15   N/A
$$

ABBREVIATIONS USED IN REMARKS
   TC - TEMPERATURE IN CELSIUS
  WCI - WIND CHILL INDEX
   HX - HEAT INDEX
  VSB - VISIBILITY
$$



USA.gov is the U.S. government's official web portal to all federal, state and local government web resources and services.